Torna al catalogo

CZ-6A DEB

AttivoPO
NORAD 61089·DEBRIS·🇨🇳 China

Lanciato Aug 6, 2024 da Taiyuan Satellite Launch Center

Loading…

Prossimi Passaggi (prossime 24 ore)

TLE

AggiornatoSource: Space-Track

Epoca: Sep 14, 2026, 17:48 UTC

1 61089U 24140NF  26257.74228906  .00000642  00000-0  31503-3 0  9992
2 61089  89.0573 270.7831 0064535 271.9048  87.4749 14.15582892105842

Traccia CZ-6A DEB in tempo reale con AllMySat

Download on the App Store